WXM80 ListenWXM80 Stop

You find our weather info also at:

UK Metoffice

WeatherCloud

Weather Underground

Northeastern Weather Network

AWEKAS

Citizen Weather Observer Program (CWOP)

HAMweather, WeatherForYou, PWS Weather


Weather Underground History page Text

Daily Summary for January 10, 2017 Units:  English    Metric   Both
« Previous Day
Next Day »
Daily Weekly Monthly Yearly Custom
  High: Low: Average:
Temperature: 45.5 °F 12.6 °F 27.5 °F
Dew Point: 40.9 °F 8.8 °F 23.2 °F
Humidity: 93 % 72 % 84 %
Wind Speed: 7.7 mph 0.0 mph 1.3 mph
Wind Gust: 29.0 mph - -
Wind:- - SSE
Pressure: 30.64 in 30.18 in -
Precipitation: 0.00 in    
Historical Graphs
 
 
Tabular Data for January 10, 2017
Time Temperature Dew Point Pressure Wind Wind Speed Wind Gust Humidity Rainfall Rate (Hourly)
00:01 17.5 °F 11.5 °F 30.64 in WSW 0.1 mph 29.0 mph 77 % 0.00 in
00:06 17.4 °F 11.4 °F 30.64 in Calm   29.0 mph 77 % 0.00 in
00:11 17.3 °F 11.3 °F 30.63 in WSW 0.8 mph 29.0 mph 77 % 0.00 in
00:16 17.1 °F 10.8 °F 30.63 in WSW 1.3 mph 29.0 mph 76 % 0.00 in
00:21 17.0 °F 10.7 °F 30.63 in WSW 1.1 mph 29.0 mph 76 % 0.00 in
00:27 16.8 °F 10.8 °F 30.63 in WSW 1.7 mph 29.0 mph 77 % 0.00 in
00:32 16.7 °F 10.7 °F 30.63 in WSW 1.7 mph 29.0 mph 77 % 0.00 in
00:37 16.5 °F 10.5 °F 30.63 in WSW 1.8 mph 29.0 mph 77 % 0.00 in
00:42 16.4 °F 10.4 °F 30.62 in WSW 0.9 mph 29.0 mph 77 % 0.00 in
00:47 16.3 °F 10.4 °F 30.63 in WSW 0.9 mph 29.0 mph 77 % 0.00 in
00:52 16.2 °F 10.5 °F 30.62 in WSW 0.2 mph 29.0 mph 78 % 0.00 in
00:57 16.1 °F 10.4 °F 30.62 in WSW 1.3 mph 29.0 mph 78 % 0.00 in
01:02 15.9 °F 10.3 °F 30.62 in Calm   29.0 mph 78 % 0.00 in
01:07 15.8 °F 10.2 °F 30.62 in Calm   29.0 mph 78 % 0.00 in
01:12 15.7 °F 10.1 °F 30.62 in Calm   29.0 mph 78 % 0.00 in
01:17 15.5 °F 9.9 °F 30.61 in Calm   29.0 mph 78 % 0.00 in
01:22 15.3 °F 9.7 °F 30.61 in Calm   29.0 mph 78 % 0.00 in
01:27 15.2 °F 9.6 °F 30.61 in Calm   29.0 mph 78 % 0.00 in
01:32 15.0 °F 9.7 °F 30.61 in Calm   29.0 mph 79 % 0.00 in
01:37 14.9 °F 9.8 °F 30.61 in Calm   29.0 mph 80 % 0.00 in
01:42 14.7 °F 9.6 °F 30.62 in Calm   29.0 mph 80 % 0.00 in
01:47 14.5 °F 9.5 °F 30.62 in Calm   29.0 mph 80 % 0.00 in
01:52 14.4 °F 9.4 °F 30.62 in Calm   29.0 mph 80 % 0.00 in
01:57 14.3 °F 9.3 °F 30.62 in Calm   29.0 mph 80 % 0.00 in
02:03 14.1 °F 9.3 °F 30.62 in WSW 0.1 mph 29.0 mph 81 % 0.00 in
02:08 14.1 °F 9.3 °F 30.62 in Calm   29.0 mph 81 % 0.00 in
02:13 14.0 °F 9.5 °F 30.62 in Calm   29.0 mph 82 % 0.00 in
02:18 13.9 °F 9.4 °F 30.62 in Calm   29.0 mph 82 % 0.00 in
02:23 13.8 °F 9.3 °F 30.62 in Calm   29.0 mph 82 % 0.00 in
02:28 13.7 °F 9.2 °F 30.62 in Calm   29.0 mph 82 % 0.00 in
02:33 13.7 °F 9.2 °F 30.62 in Calm   29.0 mph 82 % 0.00 in
02:38 13.7 °F 9.5 °F 30.61 in Calm   29.0 mph 83 % 0.00 in
02:43 13.6 °F 9.1 °F 30.62 in Calm   29.0 mph 82 % 0.00 in
02:48 13.5 °F 9.3 °F 30.62 in Calm   29.0 mph 83 % 0.00 in
02:53 13.4 °F 9.2 °F 30.62 in Calm   29.0 mph 83 % 0.00 in
02:58 13.3 °F 9.1 °F 30.61 in Calm   29.0 mph 83 % 0.00 in
03:03 13.2 °F 9.0 °F 30.62 in Calm   29.0 mph 83 % 0.00 in
03:09 13.2 °F 9.3 °F 30.61 in Calm   29.0 mph 84 % 0.00 in
03:14 13.1 °F 9.2 °F 30.61 in Calm   29.0 mph 84 % 0.00 in
03:19 13.1 °F 9.2 °F 30.61 in Calm   29.0 mph 84 % 0.00 in
03:24 13.0 °F 9.1 °F 30.61 in Calm   29.0 mph 84 % 0.00 in
03:29 12.9 °F 9.0 °F 30.62 in Calm   29.0 mph 84 % 0.00 in
03:34 12.8 °F 8.9 °F 30.62 in Calm   29.0 mph 84 % 0.00 in
03:39 12.7 °F 8.8 °F 30.62 in Calm   29.0 mph 84 % 0.00 in
03:44 12.6 °F 8.9 °F 30.61 in Calm   29.0 mph 85 % 0.00 in
03:49 12.6 °F 8.9 °F 30.61 in Calm   29.0 mph 85 % 0.00 in
03:54 12.6 °F 8.9 °F 30.61 in Calm   1.0 mph 85 % 0.00 in
03:59 12.6 °F 9.2 °F 30.61 in Calm   29.0 mph 86 % 0.00 in
04:04 12.6 °F 9.2 °F 30.60 in Calm   1.0 mph 86 % 0.00 in
04:09 12.7 °F 9.3 °F 30.60 in Calm   29.0 mph 86 % 0.00 in
04:14 12.7 °F 9.3 °F 30.61 in Calm     86 % 0.00 in
04:19 12.7 °F 9.3 °F 30.60 in Calm   1.0 mph 86 % 0.00 in
04:24 12.7 °F 9.3 °F 30.61 in Calm   1.0 mph 86 % 0.00 in
04:29 12.7 °F 9.3 °F 30.61 in WSW 0.1 mph 29.0 mph 86 % 0.00 in
04:34 12.8 °F 9.4 °F 30.61 in Calm     86 % 0.00 in
04:39 12.8 °F 9.7 °F 30.61 in Calm     87 % 0.00 in
04:44 12.8 °F 9.7 °F 30.60 in Calm     87 % 0.00 in
04:49 12.9 °F 9.8 °F 30.61 in Calm   1.0 mph 87 % 0.00 in
04:54 13.0 °F 9.9 °F 30.61 in Calm     87 % 0.00 in
04:59 13.1 °F 10.0 °F 30.62 in WSW 0.7 mph 29.0 mph 87 % 0.00 in
05:04 13.1 °F 10.0 °F 30.62 in Calm   29.0 mph 87 % 0.00 in
05:09 13.2 °F 10.1 °F 30.62 in WSW 0.1 mph 29.0 mph 87 % 0.00 in
05:14 13.3 °F 10.2 °F 30.61 in Calm   29.0 mph 87 % 0.00 in
05:19 13.3 °F 10.2 °F 30.61 in Calm   29.0 mph 87 % 0.00 in
05:24 13.4 °F 10.3 °F 30.62 in Calm   29.0 mph 87 % 0.00 in
05:29 13.4 °F 10.3 °F 30.61 in Calm   29.0 mph 87 % 0.00 in
05:34 13.4 °F 10.3 °F 30.61 in Calm   29.0 mph 87 % 0.00 in
05:39 13.5 °F 10.6 °F 30.61 in Calm   29.0 mph 88 % 0.00 in
05:45 13.6 °F 10.7 °F 30.61 in Calm   29.0 mph 88 % 0.00 in
05:50 13.7 °F 10.8 °F 30.62 in Calm   29.0 mph 88 % 0.00 in
05:55 13.8 °F 10.9 °F 30.62 in WSW 0.2 mph 29.0 mph 88 % 0.00 in
06:00 14.0 °F 11.1 °F 30.62 in Calm   29.0 mph 88 % 0.00 in
06:05 14.0 °F 11.1 °F 30.61 in Calm   29.0 mph 88 % 0.00 in
06:10 14.2 °F 11.3 °F 30.61 in Calm   29.0 mph 88 % 0.00 in
06:15 14.2 °F 11.3 °F 30.62 in Calm   29.0 mph 88 % 0.00 in
06:20 14.2 °F 11.3 °F 30.62 in Calm   29.0 mph 88 % 0.00 in
06:25 14.3 °F 11.4 °F 30.62 in Calm   29.0 mph 88 % 0.00 in
06:30 14.3 °F 11.4 °F 30.62 in Calm   29.0 mph 88 % 0.00 in
06:35 14.3 °F 11.4 °F 30.62 in Calm   29.0 mph 88 % 0.00 in
06:40 14.4 °F 11.8 °F 30.62 in Calm   29.0 mph 89 % 0.00 in
06:45 14.4 °F 11.8 °F 30.62 in Calm   29.0 mph 89 % 0.00 in
06:50 14.4 °F 11.8 °F 30.62 in Calm   29.0 mph 89 % 0.00 in
06:56 14.5 °F 11.9 °F 30.62 in Calm   29.0 mph 89 % 0.00 in
07:01 14.6 °F 11.9 °F 30.61 in Calm   29.0 mph 89 % 0.00 in
07:06 14.7 °F 12.0 °F 30.61 in Calm   29.0 mph 89 % 0.00 in
07:11 14.7 °F 12.0 °F 30.61 in Calm   29.0 mph 89 % 0.00 in
07:16 14.8 °F 12.1 °F 30.61 in Calm   29.0 mph 89 % 0.00 in
07:21 14.9 °F 12.2 °F 30.60 in Calm   29.0 mph 89 % 0.00 in
07:26 15.0 °F 12.3 °F 30.61 in Calm   29.0 mph 89 % 0.00 in
07:31 15.1 °F 12.4 °F 30.61 in Calm   29.0 mph 89 % 0.00 in
07:36 15.2 °F 12.5 °F 30.61 in Calm   29.0 mph 89 % 0.00 in
07:41 15.3 °F 12.6 °F 30.61 in Calm   29.0 mph 89 % 0.00 in
07:46 15.5 °F 12.8 °F 30.62 in WSW 0.3 mph 29.0 mph 89 % 0.00 in
07:51 15.6 °F 13.2 °F 30.62 in Calm   29.0 mph 90 % 0.00 in
07:56 15.8 °F 13.4 °F 30.62 in Calm   29.0 mph 90 % 0.00 in
08:01 16.1 °F 13.7 °F 30.62 in Calm   29.0 mph 90 % 0.00 in
08:06 16.3 °F 13.9 °F 30.62 in Calm   29.0 mph 90 % 0.00 in
08:11 16.6 °F 14.2 °F 30.62 in Calm   29.0 mph 90 % 0.00 in
08:16 16.8 °F 14.4 °F 30.62 in Calm   29.0 mph 90 % 0.00 in
08:22 17.1 °F 14.9 °F 30.62 in Calm   29.0 mph 91 % 0.00 in
08:27 17.3 °F 15.1 °F 30.61 in Calm   29.0 mph 91 % 0.00 in
08:32 17.6 °F 15.4 °F 30.61 in Calm   29.0 mph 91 % 0.00 in
08:37 18.0 °F 15.8 °F 30.61 in Calm   29.0 mph 91 % 0.00 in
08:42 18.3 °F 16.1 °F 30.61 in Calm   29.0 mph 91 % 0.00 in
08:47 18.6 °F 16.4 °F 30.62 in Calm   29.0 mph 91 % 0.00 in
08:52 19.0 °F 16.8 °F 30.62 in Calm   29.0 mph 91 % 0.00 in
08:57 19.4 °F 17.2 °F 30.62 in Calm   29.0 mph 91 % 0.00 in
09:02 19.8 °F 17.6 °F 30.61 in Calm   29.0 mph 91 % 0.00 in
09:07 20.2 °F 18.2 °F 30.61 in Calm   29.0 mph 92 % 0.00 in
09:12 20.7 °F 18.7 °F 30.61 in Calm   29.0 mph 92 % 0.00 in
09:17 21.4 °F 19.4 °F 30.61 in Calm   29.0 mph 92 % 0.00 in
09:22 22.2 °F 20.2 °F 30.62 in WSW 1.9 mph 29.0 mph 92 % 0.00 in
09:27 23.1 °F 20.9 °F 30.62 in West 0.5 mph 29.0 mph 91 % 0.00 in
09:32 24.1 °F 21.1 °F 30.62 in West 1.5 mph 29.0 mph 88 % 0.00 in
09:37 24.9 °F 21.0 °F 30.62 in WNW 1.7 mph 29.0 mph 85 % 0.00 in
09:42 25.8 °F 20.8 °F 30.62 in West 1.5 mph 29.0 mph 81 % 0.00 in
09:47 26.5 °F 20.9 °F 30.62 in West 1.9 mph 29.0 mph 79 % 0.00 in
09:52 27.0 °F 20.7 °F 30.62 in West 1.5 mph 29.0 mph 77 % 0.00 in
09:58 27.5 °F 20.9 °F 30.62 in Calm   29.0 mph 76 % 0.00 in
10:03 27.9 °F 21.0 °F 30.62 in Calm   29.0 mph 75 % 0.00 in
10:08 28.3 °F 21.1 °F 30.63 in West 0.1 mph 29.0 mph 74 % 0.00 in
10:13 28.8 °F 21.6 °F 30.62 in West 0.2 mph 29.0 mph 74 % 0.00 in
10:18 29.0 °F 21.4 °F 30.62 in Calm   29.0 mph 73 % 0.00 in
10:23 29.3 °F 21.7 °F 30.62 in Calm   29.0 mph 73 % 0.00 in
10:28 29.4 °F 21.5 °F 30.62 in West 0.3 mph 29.0 mph 72 % 0.00 in
10:33 29.6 °F 21.7 °F 30.61 in WNW 1.0 mph 29.0 mph 72 % 0.00 in
10:38 29.6 °F 21.7 °F 30.61 in WNW 0.6 mph 29.0 mph 72 % 0.00 in
10:43 29.7 °F 22.1 °F 30.61 in NE 1.0 mph 29.0 mph 73 % 0.00 in
10:48 29.7 °F 22.1 °F 30.61 in NE 0.8 mph 29.0 mph 73 % 0.00 in
10:53 29.8 °F 22.2 °F 30.60 in NE 0.5 mph 29.0 mph 73 % 0.00 in
10:58 30.0 °F 22.4 °F 30.60 in ENE 2.0 mph 29.0 mph 73 % 0.00 in
11:03 30.0 °F 22.4 °F 30.60 in ENE 1.1 mph 29.0 mph 73 % 0.00 in
11:09 30.2 °F 22.9 °F 30.59 in East 2.4 mph 29.0 mph 74 % 0.00 in
11:14 30.1 °F 22.5 °F 30.58 in East 1.1 mph 29.0 mph 73 % 0.00 in
11:19 30.3 °F 23.0 °F 30.58 in East 1.3 mph 29.0 mph 74 % 0.00 in
11:24 30.4 °F 23.1 °F 30.57 in ENE 2.8 mph 29.0 mph 74 % 0.00 in
11:29 30.5 °F 23.2 °F 30.57 in ENE 2.4 mph 29.0 mph 74 % 0.00 in
11:34 30.6 °F 23.3 °F 30.56 in ENE 2.0 mph 4.0 mph 74 % 0.00 in
11:39 30.8 °F 23.8 °F 30.56 in ENE 2.0 mph 5.0 mph 75 % 0.00 in
11:44 31.0 °F 24.0 °F 30.55 in ENE 1.0 mph 5.0 mph 75 % 0.00 in
11:49 31.2 °F 24.2 °F 30.55 in ENE 1.0 mph 3.0 mph 75 % 0.00 in
11:54 31.2 °F 24.2 °F 30.55 in ENE 2.0 mph 5.0 mph 75 % 0.00 in
11:59 31.3 °F 24.3 °F 30.54 in ENE 0.7 mph 29.0 mph 75 % 0.00 in
12:04 31.5 °F 24.5 °F 30.54 in ENE 0.8 mph 29.0 mph 75 % 0.00 in
12:09 31.7 °F 25.0 °F 30.53 in ENE 0.7 mph 29.0 mph 76 % 0.00 in
12:14 32.1 °F 25.7 °F 30.53 in SE 1.8 mph 29.0 mph 77 % 0.00 in
12:19 32.6 °F 26.2 °F 30.53 in SSE 4.5 mph 29.0 mph 77 % 0.00 in
12:24 33.2 °F 26.1 °F 30.52 in ESE 2.1 mph 29.0 mph 75 % 0.00 in
12:29 33.6 °F 26.5 °F 30.52 in South 2.6 mph 29.0 mph 75 % 0.00 in
12:34 33.9 °F 26.8 °F 30.52 in SSE 0.1 mph 29.0 mph 75 % 0.00 in
12:39 34.4 °F 27.3 °F 30.52 in SSE 1.9 mph 29.0 mph 75 % 0.00 in
12:45 34.9 °F 27.8 °F 30.51 in SSE 2.5 mph 29.0 mph 75 % 0.00 in
12:50 35.2 °F 27.7 °F 30.51 in SE 2.9 mph 29.0 mph 74 % 0.00 in
12:55 35.5 °F 28.0 °F 30.50 in SSE 4.3 mph 29.0 mph 74 % 0.00 in
13:00 35.7 °F 28.2 °F 30.50 in SE 1.6 mph 29.0 mph 74 % 0.00 in
13:05 36.1 °F 28.6 °F 30.50 in SE 4.6 mph 29.0 mph 74 % 0.00 in
13:10 36.5 °F 29.0 °F 30.50 in SSE 2.9 mph 29.0 mph 74 % 0.00 in
13:15 36.9 °F 29.7 °F 30.50 in Calm   29.0 mph 75 % 0.00 in
13:20 37.1 °F 29.2 °F 30.49 in ENE 2.0 mph 29.0 mph 73 % 0.00 in
13:25 37.1 °F 29.6 °F 30.49 in East 4.7 mph 29.0 mph 74 % 0.00 in
13:26 37.1 °F 29.6 °F 30.49 in East 2.7 mph 29.0 mph 74 % 0.00 in
13:31 36.8 °F 29.3 °F 30.49 in East 1.8 mph 29.0 mph 74 % 0.00 in
13:36 36.6 °F 29.1 °F 30.49 in ENE 2.7 mph 29.0 mph 74 % 0.00 in
13:41 36.5 °F 29.3 °F 30.48 in East 2.7 mph 29.0 mph 75 % 0.00 in
13:47 36.2 °F 29.0 °F 30.48 in East 1.8 mph 29.0 mph 75 % 0.00 in
13:52 36.1 °F 28.9 °F 30.48 in ENE 2.7 mph 29.0 mph 75 % 0.00 in
13:57 35.9 °F 29.1 °F 30.48 in ENE 2.5 mph 29.0 mph 76 % 0.00 in
14:02 35.9 °F 29.1 °F 30.48 in ENE 2.3 mph 29.0 mph 76 % 0.00 in
14:07 35.8 °F 29.3 °F 30.47 in ENE 2.4 mph 29.0 mph 77 % 0.00 in
14:12 35.8 °F 29.3 °F 30.47 in ENE 1.8 mph 29.0 mph 77 % 0.00 in
14:17 35.7 °F 29.2 °F 30.47 in ENE 3.1 mph 29.0 mph 77 % 0.00 in
14:22 35.6 °F 29.4 °F 30.47 in ENE 2.0 mph 29.0 mph 78 % 0.00 in
14:27 35.5 °F 29.6 °F 30.47 in East 1.5 mph 29.0 mph 79 % 0.00 in
14:32 35.4 °F 29.5 °F 30.47 in ENE 2.1 mph 29.0 mph 79 % 0.00 in
14:37 35.3 °F 29.4 °F 30.47 in ENE 2.8 mph 29.0 mph 79 % 0.00 in
14:42 35.2 °F 29.6 °F 30.47 in ENE 1.6 mph 29.0 mph 80 % 0.00 in
14:47 35.1 °F 29.6 °F 30.47 in ENE 2.9 mph 29.0 mph 80 % 0.00 in
14:52 35.0 °F 29.8 °F 30.47 in ENE 2.4 mph 29.0 mph 81 % 0.00 in
14:57 35.0 °F 30.1 °F 30.46 in ENE 0.6 mph 29.0 mph 82 % 0.00 in
15:03 35.0 °F 30.1 °F 30.46 in ENE 3.4 mph 29.0 mph 82 % 0.00 in
15:08 35.0 °F 30.1 °F 30.46 in ENE 0.9 mph 29.0 mph 82 % 0.00 in
15:13 35.1 °F 30.5 °F 30.45 in ENE 1.7 mph 29.0 mph 83 % 0.00 in
15:18 35.2 °F 30.6 °F 30.44 in ENE 1.8 mph 29.0 mph 83 % 0.00 in
15:23 35.3 °F 30.7 °F 30.43 in ENE 1.9 mph 29.0 mph 83 % 0.00 in
15:28 35.3 °F 30.9 °F 30.43 in ENE 2.7 mph 29.0 mph 84 % 0.00 in
15:33 35.3 °F 30.9 °F 30.42 in East 2.6 mph 29.0 mph 84 % 0.00 in
15:38 35.3 °F 30.9 °F 30.42 in East 1.8 mph 29.0 mph 84 % 0.00 in
15:43 35.3 °F 30.9 °F 30.42 in East 1.7 mph 29.0 mph 84 % 0.00 in
15:48 35.3 °F 31.2 °F 30.43 in Calm   29.0 mph 85 % 0.00 in
15:53 35.3 °F 31.2 °F 30.43 in Calm   29.0 mph 85 % 0.00 in
15:58 35.3 °F 31.2 °F 30.44 in East 0.9 mph 29.0 mph 85 % 0.00 in
16:04 35.3 °F 31.2 °F 30.44 in Calm   29.0 mph 85 % 0.00 in
16:09 35.4 °F 31.3 °F 30.44 in Calm   29.0 mph 85 % 0.00 in
16:14 35.4 °F 31.3 °F 30.44 in Calm   29.0 mph 85 % 0.00 in
16:19 35.4 °F 31.3 °F 30.44 in Calm   29.0 mph 85 % 0.00 in
16:24 35.4 °F 31.3 °F 30.44 in Calm   29.0 mph 85 % 0.00 in
16:29 35.4 °F 31.3 °F 30.43 in Calm   29.0 mph 85 % 0.00 in
16:34 35.4 °F 31.3 °F 30.43 in Calm   29.0 mph 85 % 0.00 in
16:39 35.3 °F 31.2 °F 30.43 in Calm   29.0 mph 85 % 0.00 in
16:44 35.3 °F 31.2 °F 30.43 in Calm   29.0 mph 85 % 0.00 in
16:49 35.3 °F 31.2 °F 30.42 in Calm   29.0 mph 85 % 0.00 in
16:54 35.3 °F 31.2 °F 30.42 in Calm     85 % 0.00 in
17:05 35.2 °F 31.1 °F 30.42 in East 2.0 mph 2.3 mph 85 % 0.00 in
17:10 35.2 °F 31.1 °F 30.42 in Calm     85 % 0.00 in
17:15 35.1 °F 31.0 °F 30.41 in Calm     85 % 0.00 in
17:20 35.0 °F 30.9 °F 30.41 in Calm     85 % 0.00 in
17:25 35.0 °F 31.2 °F 30.41 in Calm     86 % 0.00 in
17:30 35.0 °F 31.2 °F 30.41 in Calm     86 % 0.00 in
17:35 34.9 °F 31.1 °F 30.41 in Calm     86 % 0.00 in
17:40 34.9 °F 31.1 °F 30.41 in Calm     86 % 0.00 in
17:45 34.8 °F 31.0 °F 30.41 in Calm     86 % 0.00 in
17:50 34.8 °F 31.0 °F 30.41 in Calm     86 % 0.00 in
17:55 34.7 °F 30.9 °F 30.41 in Calm     86 % 0.00 in
18:00 34.7 °F 30.9 °F 30.40 in Calm     86 % 0.00 in
18:05 34.6 °F 30.8 °F 30.40 in Calm     86 % 0.00 in
18:10 34.6 °F 30.8 °F 30.40 in Calm     86 % 0.00 in
18:15 34.6 °F 30.8 °F 30.40 in Calm     86 % 0.00 in
18:21 34.6 °F 30.8 °F 30.40 in Calm     86 % 0.00 in
18:26 34.5 °F 30.7 °F 30.39 in Calm     86 % 0.00 in
18:31 34.4 °F 30.6 °F 30.39 in Calm     86 % 0.00 in
18:36 34.3 °F 30.5 °F 30.39 in Calm     86 % 0.00 in
18:41 34.3 °F 30.8 °F 30.39 in Calm     87 % 0.00 in
18:46 34.3 °F 30.8 °F 30.39 in Calm     87 % 0.00 in
18:51 34.3 °F 30.8 °F 30.38 in Calm     87 % 0.00 in
18:56 34.2 °F 30.7 °F 30.38 in Calm     87 % 0.00 in
19:01 34.2 °F 30.7 °F 30.37 in Calm     87 % 0.00 in
19:06 34.1 °F 30.6 °F 30.37 in Calm     87 % 0.00 in
19:11 34.1 °F 30.6 °F 30.37 in Calm     87 % 0.00 in
19:16 34.1 °F 30.9 °F 30.37 in East 0.5 mph 1.2 mph 88 % 0.00 in
19:21 34.1 °F 30.9 °F 30.36 in Calm     88 % 0.00 in
19:26 34.1 °F 30.9 °F 30.36 in Calm   1.2 mph 88 % 0.00 in
19:31 34.1 °F 31.2 °F 30.35 in Calm   1.2 mph 89 % 0.00 in
19:37 34.2 °F 31.3 °F 30.35 in ESE 2.3 mph 3.5 mph 89 % 0.00 in
19:42 34.3 °F 31.7 °F 30.35 in ESE 1.2 mph 2.3 mph 90 % 0.00 in
19:47 34.4 °F 31.8 °F 30.34 in SSE 2.7 mph 3.5 mph 90 % 0.00 in
19:52 34.7 °F 32.3 °F 30.34 in SE 2.4 mph 4.0 mph 91 % 0.00 in
19:57 35.1 °F 33.0 °F 30.33 in SSE 3.0 mph 4.6 mph 92 % 0.00 in
20:02 35.6 °F 33.8 °F 30.32 in SSE 4.2 mph 6.0 mph 93 % 0.00 in
20:07 36.1 °F 34.3 °F 30.32 in SSE 3.3 mph 7.0 mph 93 % 0.00 in
20:12 36.4 °F 34.6 °F 30.32 in SSE 1.5 mph 3.5 mph 93 % 0.00 in
20:17 36.8 °F 35.0 °F 30.32 in SSE 0.7 mph 3.5 mph 93 % 0.00 in
20:22 37.1 °F 35.3 °F 30.31 in SSE 2.4 mph 5.8 mph 93 % 0.00 in
20:27 37.3 °F 35.5 °F 30.32 in South 2.4 mph 3.5 mph 93 % 0.00 in
20:32 37.6 °F 35.8 °F 30.32 in South 2.0 mph 3.5 mph 93 % 0.00 in
20:37 37.9 °F 36.1 °F 30.31 in SSE 7.1 mph 11.5 mph 93 % 0.00 in
20:42 38.2 °F 36.4 °F 30.31 in South 0.6 mph 3.5 mph 93 % 0.00 in
20:47 38.4 °F 36.6 °F 30.31 in South 2.5 mph 5.0 mph 93 % 0.00 in
20:53 38.6 °F 36.8 °F 30.31 in South 2.9 mph 5.8 mph 93 % 0.00 in
20:58 38.8 °F 36.9 °F 30.31 in SSW 1.8 mph 5.8 mph 93 % 0.00 in
21:03 39.0 °F 37.1 °F 30.30 in SSW 2.7 mph 6.9 mph 93 % 0.00 in
21:08 39.3 °F 37.4 °F 30.30 in SSE 2.8 mph 5.8 mph 93 % 0.00 in
21:13 39.6 °F 37.7 °F 30.29 in South 2.0 mph 6.9 mph 93 % 0.00 in
21:18 39.9 °F 38.0 °F 30.29 in SSE 4.7 mph 8.1 mph 93 % 0.00 in
21:23 40.2 °F 38.3 °F 30.28 in South 2.9 mph 8.1 mph 93 % 0.00 in
21:28 40.5 °F 38.6 °F 30.28 in South 4.0 mph 9.2 mph 93 % 0.00 in
21:33 40.7 °F 38.6 °F 30.27 in South 3.2 mph 6.9 mph 92 % 0.00 in
21:38 40.9 °F 38.8 °F 30.27 in SSE 3.6 mph 6.9 mph 92 % 0.00 in
21:43 41.0 °F 38.9 °F 30.27 in SSW 4.3 mph 6.9 mph 92 % 0.00 in
21:48 41.3 °F 39.2 °F 30.27 in SSW 5.0 mph 11.5 mph 92 % 0.00 in
21:54 41.6 °F 39.2 °F 30.26 in SE 5.2 mph 8.1 mph 91 % 0.00 in
21:59 41.8 °F 39.4 °F 30.26 in SW 5.5 mph 10.4 mph 91 % 0.00 in
22:04 41.9 °F 39.2 °F 30.25 in South 3.7 mph 6.0 mph 90 % 0.00 in
22:09 42.0 °F 39.3 °F 30.25 in South 6.9 mph 9.0 mph 90 % 0.00 in
22:14 42.3 °F 39.3 °F 30.24 in SE 6.2 mph 10.4 mph 89 % 0.00 in
22:19 42.4 °F 39.4 °F 30.25 in SSE 5.9 mph 9.2 mph 89 % 0.00 in
22:24 42.6 °F 39.3 °F 30.24 in South 4.7 mph 7.0 mph 88 % 0.00 in
22:29 42.8 °F 39.5 °F 30.23 in SSE 5.1 mph 11.5 mph 88 % 0.00 in
22:34 43.1 °F 39.5 °F 30.23 in South 7.0 mph 12.0 mph 87 % 0.00 in
22:39 43.3 °F 39.7 °F 30.23 in South 2.0 mph 12.0 mph 87 % 0.00 in
22:44 43.5 °F 39.6 °F 30.23 in South 6.8 mph 11.5 mph 86 % 0.00 in
22:49 43.8 °F 39.9 °F 30.23 in SSW 7.1 mph 11.5 mph 86 % 0.00 in
22:54 43.9 °F 40.0 °F 30.22 in SSE 7.7 mph 11.5 mph 86 % 0.00 in
22:59 44.2 °F 40.0 °F 30.22 in SSW 5.8 mph 12.7 mph 85 % 0.00 in
23:04 44.5 °F 40.0 °F 30.22 in SSW 5.4 mph 11.5 mph 84 % 0.00 in
23:09 44.6 °F 40.4 °F 30.21 in WSW 3.8 mph 6.9 mph 85 % 0.00 in
23:14 44.7 °F 40.5 °F 30.20 in South 6.0 mph 11.5 mph 85 % 0.00 in
23:19 44.9 °F 40.4 °F 30.20 in South 5.4 mph 9.2 mph 84 % 0.00 in
23:25 45.1 °F 40.6 °F 30.20 in SSW 4.1 mph 10.4 mph 84 % 0.00 in
23:30 45.2 °F 40.7 °F 30.20 in SSE 5.4 mph 6.9 mph 84 % 0.00 in
23:35 45.3 °F 40.7 °F 30.19 in South 4.6 mph 13.0 mph 84 % 0.00 in
23:40 45.4 °F 40.8 °F 30.19 in SSW 4.8 mph 8.0 mph 84 % 0.00 in
23:45 45.5 °F 40.9 °F 30.19 in South 5.1 mph 8.1 mph 84 % 0.00 in
23:50 45.4 °F 40.8 °F 30.18 in SSE 3.5 mph 5.8 mph 84 % 0.00 in
23:55 45.5 °F 40.9 °F 30.18 in South 6.6 mph 11.5 mph 84 % 0.00 in
Crab Meadow Weather
Compliments of Weather Underground - 3 mb

Script developed by  Jim McMurry - jmcmurry@mwt.net Adapted for the template by  Wim van der Kuil - Leuven-Template.eu

Weather Terms: Wind Advisory - Sustained winds of 30 mph or greater or gusts to 45 mph or greater for a duration of one hour or longer.